Tracking 35280 objects as of 7-Sep-2026
HD Live streaming from Space Station
objects crossing your sky now

ORCASAT


ORCASAT is no longer on orbit
ORCASAT is classified as:


NORAD ID: 55126
Int'l Code: 1998-067UT
Launch date: November 20, 1998
Source: Canada (CA)
Launch site: TYURATAM MISSILE AND SPACE COMPLEX (TTMTR)
Decay date: 2023-07-11

Uplink (MHz):
Downlink (MHz): 437.060
Beacon (MHz):
Mode: 10.17kbit/s FSK
Call sign:
Status: Reentered

Your satellite tracking list
Your tracking list is empty




NASA's NSSDC Master Catalog

Two Line Element Set (TLE):
1 55126U 98067UT  23188.27229914  .07234202  12377-4  68917-3 0  9995
2 55126  51.6150 199.9533 0005258 299.7195  60.3307 16.37675140 29909
Source of the keplerian elements: AFSPC